Location: Cheyres
(46.8153°N, 6.7877°E)
Time: 14:32:29
(UTC+00:00)

NANOSAT C BR1 - Pass Details

Date: 03 July 2022
Orbit: 584 x 599 km, 98.0° (Epoch: 18 August)

Event Time Altitude Azimuth Distance (km) Brightness Sun altitude
Rises 01:27:04 0° 17° (NNE) 2,853 ? -15.9°
Reaches altitude 10° 01:29:18 10° 22° (NNE) 1,948 ? -15.8°
Maximum altitude 01:33:27 54° 100° (E) 731 ? -15.4°
Enters shadow 01:36:09 20° 172° (S) 1,384 ? -15.2°
